User: anonymous
Location: Vancouver
(49.2500°N, 123.1330°W)
Time: 15:08:25
(UTC-07:00)
Language:

Cosmos 1864 Rocket - Orbit

View from above orbital plane
View from above orbital plane
View from above satellite
View from above satellite

Ground track
Ground track

The orbit data is extracted from the following two-line orbital elements,

1 18161U 87057B   14112.39378675  .00000087  00000-0  72844-4 0  4721
2 18161 082.9370 208.9508 0029761 296.8880 106.8664 13.76833246325729
Epoch (UTC): 22 April 2014 09:27:03
Eccentricity: 0.0029761
inclination: 82.9370°
perigee height: 953 km
apogee height: 997 km
right ascension of ascending node: 208.9508°
argument of perigee: 296.8880°
revolutions per day: 13.76833246
mean anomaly at epoch: 106.8664°
orbit number at epoch: 32572

The dashed part of the orbit path shows where the satellite is in the earth's shadow,  

DLR